星链-30708 (STARLINK-30708 )

导读

STARLINK-30708是美国SpaceX公司星链项目的第二代商业通信卫星(STARLINK V2M),于2023年9月25日由猎鹰9号火箭从美国空军西部试验靶场发射升空。卫星湿重730kg,运行在近地轨道(LEO),作为星链星座组网卫星,承担全球高速互联网接入服务,属于SpaceX二代星座部署阶段的组网卫星,助力星链覆盖偏远地区、移动场景等多样化通信需求。

基本信息
目录编号:
57944
目录名称:
STARLINK-30708
国际标识:
2023-148K
轨道中心:
EARTH
卫星名称:
星链-30708
卫星全名:
星链-30708 (STARLINK-30708 )
卫星状态:
在轨 (已飞行997 天)
发射日期:
2023-09-25 UTC
国别 :
美国 (US)
星等 :
--
轨道信息
数据来源 国际轨道数据
星历时间: 2026-06-17T22:46:13+0800
20小时前
查看轨道信息
半长轴: 6840.865km
偏心率: 0.00013
轨道倾角: 53.161°
近地点辐角 91.597°
升交点赤经 279.275°
平近点角 268.518°
近地点: 461.838km
远地点: 463.618km
周期: 93.848分钟
每日圈数: 15.34392
详细信息
固有亮度:
5
最大亮度:
0.3
卫星平台:
Starlink v2.0 mini
覆盖范围:
全球
运营商:
太空探索技术公司
运营商所在国:
美国
制造商(研发单位):
太空探索技术公司
制造商所在国:
美国
使用方式:
暂无
卫星简介
星链(Starlink)计划是由太空探索技术公司(SpaceX)提出的一个巨型低轨卫星互联网星座项目,计划在2019年至2024年间在太空搭建由约1.2万颗卫星组成的“星链”网络,其中1584颗将部署在地球上空550千米处的近地轨道,并从2020年开始工作。该卫星仍在工作。
2D轨道图
3D轨道图
轨道高度分析图
轨道倾角分析图
轨道综合分析图
查看轨道综合分析图